HVDC transfer

From www.emi.ea.govt.nz provided by the Electricity Authority (New Zealand)
Run at: 20240504043416

Parameters
Date range,14 Jul 2019 - 14 Jul 2019
Time scale,Trading period
Show,Average flow (MW)

Period start,Period end,Trading period,Direction,Energy transfer (GWh),Peak flow (MW),Average flow (MW)
14/07/2019 00:00:00,14/07/2019 00:30:00,1,Southward at Benmore,-0.011,-22,-22
14/07/2019 00:30:00,14/07/2019 01:00:00,2,Southward at Benmore,-0.024,-49,-49
14/07/2019 01:00:00,14/07/2019 01:30:00,3,Southward at Benmore,-0.019,-38,-38
14/07/2019 01:30:00,14/07/2019 02:00:00,4,Southward at Benmore,-0.027,-55,-55
14/07/2019 02:00:00,14/07/2019 02:30:00,5,Southward at Benmore,-0.031,-63,-63
14/07/2019 02:30:00,14/07/2019 03:00:00,6,Southward at Benmore,-0.048,-96,-96
14/07/2019 03:00:00,14/07/2019 03:30:00,7,Southward at Benmore,-0.047,-94,-94
14/07/2019 03:30:00,14/07/2019 04:00:00,8,Southward at Benmore,-0.051,-103,-103
14/07/2019 04:00:00,14/07/2019 04:30:00,9,Southward at Benmore,-0.056,-113,-113
14/07/2019 04:30:00,14/07/2019 05:00:00,10,Southward at Benmore,-0.064,-128,-128
14/07/2019 05:00:00,14/07/2019 05:30:00,11,Southward at Benmore,-0.056,-112,-112
14/07/2019 05:30:00,14/07/2019 06:00:00,12,Southward at Benmore,-0.037,-74,-74
14/07/2019 06:00:00,14/07/2019 06:30:00,13,Southward at Benmore,-0.023,-47,-47
14/07/2019 06:30:00,14/07/2019 07:00:00,14,Southward at Benmore,-0.014,-28,-28
14/07/2019 07:00:00,14/07/2019 07:30:00,15,Northward at Haywards,0.026,52,52
14/07/2019 07:30:00,14/07/2019 08:00:00,16,Northward at Haywards,0.062,123,123
14/07/2019 08:00:00,14/07/2019 08:30:00,17,Northward at Haywards,0.105,210,210
14/07/2019 08:30:00,14/07/2019 09:00:00,18,Northward at Haywards,0.136,272,272
14/07/2019 09:00:00,14/07/2019 09:30:00,19,Northward at Haywards,0.160,320,320
14/07/2019 09:30:00,14/07/2019 10:00:00,20,Northward at Haywards,0.173,346,346
14/07/2019 10:00:00,14/07/2019 10:30:00,21,Northward at Haywards,0.184,367,367
14/07/2019 10:30:00,14/07/2019 11:00:00,22,Northward at Haywards,0.193,386,386
14/07/2019 11:00:00,14/07/2019 11:30:00,23,Northward at Haywards,0.173,346,346
14/07/2019 11:30:00,14/07/2019 12:00:00,24,Northward at Haywards,0.210,419,419
14/07/2019 12:00:00,14/07/2019 12:30:00,25,Northward at Haywards,0.219,437,437
14/07/2019 12:30:00,14/07/2019 13:00:00,26,Northward at Haywards,0.182,363,363
14/07/2019 13:00:00,14/07/2019 13:30:00,27,Northward at Haywards,0.167,333,333
14/07/2019 13:30:00,14/07/2019 14:00:00,28,Northward at Haywards,0.143,285,285
14/07/2019 14:00:00,14/07/2019 14:30:00,29,Northward at Haywards,0.109,217,217
14/07/2019 14:30:00,14/07/2019 15:00:00,30,Northward at Haywards,0.106,212,212
14/07/2019 15:00:00,14/07/2019 15:30:00,31,Northward at Haywards,0.115,230,230
14/07/2019 15:30:00,14/07/2019 16:00:00,32,Northward at Haywards,0.226,451,451
14/07/2019 16:00:00,14/07/2019 16:30:00,33,Northward at Haywards,0.227,454,454
14/07/2019 16:30:00,14/07/2019 17:00:00,34,Northward at Haywards,0.253,505,505
14/07/2019 17:00:00,14/07/2019 17:30:00,35,Northward at Haywards,0.253,506,506
14/07/2019 17:30:00,14/07/2019 18:00:00,36,Northward at Haywards,0.273,545,545
14/07/2019 18:00:00,14/07/2019 18:30:00,37,Northward at Haywards,0.306,612,612
14/07/2019 18:30:00,14/07/2019 19:00:00,38,Northward at Haywards,0.338,675,675
14/07/2019 19:00:00,14/07/2019 19:30:00,39,Northward at Haywards,0.306,611,611
14/07/2019 19:30:00,14/07/2019 20:00:00,40,Northward at Haywards,0.258,516,516
14/07/2019 20:00:00,14/07/2019 20:30:00,41,Northward at Haywards,0.239,478,478
14/07/2019 20:30:00,14/07/2019 21:00:00,42,Northward at Haywards,0.239,477,477
14/07/2019 21:00:00,14/07/2019 21:30:00,43,Northward at Haywards,0.232,464,464
14/07/2019 21:30:00,14/07/2019 22:00:00,44,Northward at Haywards,0.198,395,395
14/07/2019 22:00:00,14/07/2019 22:30:00,45,Northward at Haywards,0.156,311,311
14/07/2019 22:30:00,14/07/2019 23:00:00,46,Northward at Haywards,0.105,209,209
14/07/2019 23:00:00,14/07/2019 23:30:00,47,Northward at Haywards,0.059,118,118
14/07/2019 23:30:00,15/07/2019 00:00:00,48,Northward at Haywards,0.009,17,17
